Location: Unspecified
(42.3650°N, 71.1030°W)
Time: 16:06:05
(UTC+00:00)

S-56A Canister/Altair - Pass Details

Date: 27 June 2024
Orbit: 638 x 2487 km, 38.9° (Epoch: 20 July)

Event Time Altitude Azimuth Distance (km) Brightness Sun altitude
Rises 07:11:33 0° 281° (WNW) 5,370 11.6 -16.4°
Reaches altitude 10° 07:15:39 10° 270° (W) 4,615 11.2 -16.0°
Maximum altitude 07:25:34 26° 222° (SW) 3,868 10.5 -14.9°
Drops below altitude 10° 07:36:35 10° 174° (S) 5,132 11.3 -13.6°
Sets 07:41:33 0° 163° (SSE) 6,076 11.8 -13.1°
